Time,TemperatureF,DewpointF,PressureIn,WindDirection,WindDirectionDegrees,WindSpeedMPH,WindSpeedGustMPH,Humidity,HourlyPrecipIn,Conditions,Clouds,dailyrainin,SoftwareType,DateUTC
2013-01-13 00:03:00,-5.0,-9.0,30.30,WNW,294,0.0,2.0,83,0.00,,,0.00,,2013-01-13 06:03:00,
2013-01-13 00:12:00,-5.0,-9.0,30.30,WNW,294,0.0,2.0,83,0.00,,,0.00,,2013-01-13 06:12:00,
2013-01-13 00:22:00,-5.0,-9.0,30.31,WNW,288,1.0,3.0,83,0.00,,,0.00,,2013-01-13 06:22:00,
2013-01-13 00:32:00,-5.0,-9.0,30.31,WNW,285,0.0,2.0,82,0.00,,,0.00,,2013-01-13 06:32:00,
2013-01-13 00:42:00,-5.0,-9.0,30.31,WNW,285,0.0,2.0,82,0.00,,,0.00,,2013-01-13 06:42:00,
2013-01-13 00:52:00,-6.0,-10.0,30.30,WNW,290,0.0,2.0,83,0.00,,,0.00,,2013-01-13 06:52:00,
2013-01-13 01:02:00,-6.0,-10.0,30.30,WNW,296,0.0,0.0,84,0.00,,,0.00,,2013-01-13 07:02:00,
2013-01-13 01:12:00,-6.0,-10.0,30.30,WNW,296,0.0,0.0,84,0.00,,,0.00,,2013-01-13 07:12:00,
2013-01-13 01:22:00,-6.0,-10.0,30.30,WNW,285,0.0,2.0,84,0.00,,,0.00,,2013-01-13 07:22:00,
2013-01-13 01:32:00,-6.0,-10.0,30.30,NW,319,2.0,4.0,84,0.00,,,0.00,,2013-01-13 07:32:00,
2013-01-13 01:42:00,-6.0,-10.0,30.30,NW,319,2.0,4.0,84,0.00,,,0.00,,2013-01-13 07:42:00,
2013-01-13 01:52:00,-6.0,-10.0,30.29,NW,326,2.0,5.0,83,0.00,,,0.00,,2013-01-13 07:52:00,
2013-01-13 02:02:00,-6.0,-10.0,30.29,NW,323,1.0,4.0,82,0.00,,,0.00,,2013-01-13 08:02:00,
2013-01-13 02:12:00,-6.0,-10.0,30.29,NW,323,1.0,4.0,82,0.00,,,0.00,,2013-01-13 08:12:00,
2013-01-13 02:22:00,-6.0,-10.0,30.29,WNW,302,2.0,5.0,83,0.00,,,0.00,,2013-01-13 08:22:00,
2013-01-13 02:32:00,-6.0,-10.0,30.30,WNW,295,0.0,3.0,82,0.00,,,0.00,,2013-01-13 08:32:00,
2013-01-13 02:42:00,-6.0,-10.0,30.30,WNW,295,0.0,3.0,82,0.00,,,0.00,,2013-01-13 08:42:00,
2013-01-13 02:52:00,-7.0,-11.0,30.30,WNW,302,1.0,4.0,82,0.00,,,0.00,,2013-01-13 08:52:00,
2013-01-13 03:02:00,-7.0,-11.0,30.30,NW,316,0.0,2.0,83,0.00,,,0.00,,2013-01-13 09:02:00,
2013-01-13 03:12:00,-7.0,-11.0,30.30,NW,316,0.0,2.0,83,0.00,,,0.00,,2013-01-13 09:12:00,
2013-01-13 03:22:00,-7.0,-11.0,30.30,NW,316,0.0,2.0,83,0.00,,,0.00,,2013-01-13 09:22:00,
2013-01-13 03:32:00,-7.0,-11.0,30.29,NW,314,0.0,2.0,83,0.00,,,0.00,,2013-01-13 09:32:00,
2013-01-13 03:42:00,-7.0,-11.0,30.29,NW,314,0.0,2.0,83,0.00,,,0.00,,2013-01-13 09:42:00,
2013-01-13 03:52:00,-7.0,-11.0,30.29,WNW,301,0.0,3.0,83,0.00,,,0.00,,2013-01-13 09:52:00,
2013-01-13 04:02:00,-7.0,-11.0,30.28,WNW,294,0.0,1.0,83,0.00,,,0.00,,2013-01-13 10:02:00,
2013-01-13 04:12:00,-7.0,-11.0,30.28,WNW,294,0.0,1.0,83,0.00,,,0.00,,2013-01-13 10:12:00,
2013-01-13 04:22:00,-7.0,-11.0,30.27,West,267,0.0,0.0,84,0.00,,,0.00,,2013-01-13 10:22:00,
2013-01-13 04:32:00,-7.0,-11.0,30.27,WSW,256,0.0,1.0,83,0.00,,,0.00,,2013-01-13 10:32:00,
2013-01-13 04:42:00,-7.0,-11.0,30.27,WSW,256,0.0,1.0,83,0.00,,,0.00,,2013-01-13 10:42:00,
2013-01-13 04:52:00,-7.0,-11.0,30.27,WNW,285,1.0,3.0,82,0.00,,,0.00,,2013-01-13 10:52:00,
2013-01-13 05:02:00,-7.0,-11.0,30.27,West,264,1.0,3.0,83,0.00,,,0.00,,2013-01-13 11:02:00,
2013-01-13 05:12:00,-7.0,-11.0,30.27,West,264,1.0,3.0,83,0.00,,,0.00,,2013-01-13 11:12:00,
2013-01-13 05:22:00,-7.0,-11.0,30.26,WSW,256,1.0,2.0,82,0.00,,,0.00,,2013-01-13 11:22:00,
2013-01-13 05:32:00,-7.0,-11.0,30.26,West,278,1.0,2.0,83,0.00,,,0.00,,2013-01-13 11:32:00,
2013-01-13 05:42:00,-7.0,-11.0,30.26,West,278,1.0,2.0,83,0.00,,,0.00,,2013-01-13 11:42:00,
2013-01-13 05:52:00,-7.0,-11.0,30.25,WSW,257,0.0,1.0,83,0.00,,,0.00,,2013-01-13 11:52:00,
2013-01-13 06:03:00,-6.0,-10.0,30.26,WSW,240,0.0,2.0,83,0.00,,,0.00,,2013-01-13 12:03:00,
2013-01-13 06:12:00,-6.0,-10.0,30.26,WSW,240,0.0,2.0,83,0.00,,,0.00,,2013-01-13 12:12:00,
2013-01-13 06:22:00,-6.0,-10.0,30.26,West,264,1.0,2.0,82,0.00,,,0.00,,2013-01-13 12:22:00,
2013-01-13 06:32:00,-6.0,-10.0,30.26,WNW,284,2.0,3.0,82,0.00,,,0.00,,2013-01-13 12:32:00,
2013-01-13 06:42:00,-6.0,-10.0,30.26,WNW,284,2.0,3.0,82,0.00,,,0.00,,2013-01-13 12:42:00,
2013-01-13 06:52:00,-6.0,-10.0,30.26,West,262,1.0,3.0,81,0.00,,,0.00,,2013-01-13 12:52:00,
2013-01-13 07:02:00,-5.0,-9.0,30.27,West,271,1.0,4.0,81,0.00,,,0.00,,2013-01-13 13:02:00,
2013-01-13 07:12:00,-5.0,-9.0,30.27,West,271,1.0,4.0,81,0.00,,,0.00,,2013-01-13 13:12:00,
2013-01-13 07:22:00,-5.0,-9.0,30.27,SW,224,2.0,4.0,82,0.00,,,0.00,,2013-01-13 13:22:00,
2013-01-13 07:33:00,-5.0,-9.0,30.27,SW,236,1.0,3.0,82,0.00,,,0.00,,2013-01-13 13:33:00,
2013-01-13 07:42:00,-5.0,-9.0,30.27,SW,236,1.0,3.0,82,0.00,,,0.00,,2013-01-13 13:42:00,
2013-01-13 07:53:00,-5.0,-9.0,30.28,WSW,240,2.0,4.0,82,0.00,,,0.00,,2013-01-13 13:53:00,
2013-01-13 08:03:00,-4.0,-8.0,30.28,SSW,204,2.0,4.0,82,0.00,,,0.00,,2013-01-13 14:03:00,
2013-01-13 08:12:00,-4.0,-8.0,30.28,SSW,204,2.0,4.0,82,0.00,,,0.00,,2013-01-13 14:12:00,
2013-01-13 08:22:00,-4.0,-8.0,30.28,SW,229,1.0,3.0,82,0.00,,,0.00,,2013-01-13 14:22:00,
2013-01-13 08:33:00,-4.0,-8.0,30.28,WSW,252,1.0,3.0,83,0.00,,,0.00,,2013-01-13 14:33:00,
2013-01-13 08:43:00,-4.0,-8.0,30.28,WSW,252,1.0,3.0,83,0.00,,,0.00,,2013-01-13 14:43:00,
2013-01-13 08:52:00,-4.0,-8.0,30.29,WSW,251,1.0,3.0,82,0.00,,,0.00,,2013-01-13 14:52:00,
2013-01-13 09:03:00,-3.0,-7.0,30.30,SW,218,0.0,1.0,82,0.00,,,0.00,,2013-01-13 15:03:00,
2013-01-13 09:12:00,-3.0,-7.0,30.30,SW,218,0.0,1.0,82,0.00,,,0.00,,2013-01-13 15:12:00,
2013-01-13 09:23:00,-3.0,-7.0,30.30,West,281,0.0,1.0,82,0.00,,,0.00,,2013-01-13 15:23:00,
2013-01-13 09:33:00,-2.0,-6.0,30.30,West,267,1.0,3.0,81,0.00,,,0.00,,2013-01-13 15:33:00,
2013-01-13 09:43:00,-2.0,-6.0,30.30,West,267,1.0,3.0,81,0.00,,,0.00,,2013-01-13 15:43:00,
2013-01-13 09:52:00,-1.0,-6.0,30.29,West,281,2.0,4.0,80,0.00,,,0.00,,2013-01-13 15:52:00,
2013-01-13 10:03:00,-1.0,-6.0,30.29,NW,308,3.0,6.0,79,0.00,,,0.00,,2013-01-13 16:03:00,
2013-01-13 10:12:00,-1.0,-6.0,30.29,NW,308,3.0,6.0,79,0.00,,,0.00,,2013-01-13 16:12:00,
2013-01-13 10:23:00,-1.0,-6.0,30.29,WNW,285,3.0,6.0,79,0.00,,,0.00,,2013-01-13 16:23:00,
2013-01-13 10:33:00,-1.0,-6.0,30.30,WNW,287,3.0,6.0,80,0.00,,,0.00,,2013-01-13 16:33:00,
2013-01-13 10:43:00,-1.0,-6.0,30.30,WNW,287,3.0,6.0,80,0.00,,,0.00,,2013-01-13 16:43:00,
2013-01-13 10:52:00,0.0,-5.0,30.30,WNW,294,3.0,5.0,79,0.00,,,0.00,,2013-01-13 16:52:00,
2013-01-13 11:03:00,0.0,-5.0,30.30,NW,308,5.0,10.0,80,0.00,,,0.00,,2013-01-13 17:03:00,
2013-01-13 11:12:00,0.0,-5.0,30.30,NW,308,5.0,10.0,80,0.00,,,0.00,,2013-01-13 17:12:00,
2013-01-13 11:22:00,0.0,-5.0,30.29,NW,326,4.0,10.0,79,0.00,,,0.00,,2013-01-13 17:22:00,
2013-01-13 11:33:00,0.0,-5.0,30.29,NNW,327,3.0,7.0,79,0.00,,,0.00,,2013-01-13 17:33:00,
2013-01-13 11:42:00,0.0,-5.0,30.29,NNW,327,3.0,7.0,79,0.00,,,0.00,,2013-01-13 17:42:00,
2013-01-13 11:53:00,1.0,-4.0,30.29,WNW,297,3.0,8.0,79,0.00,,,0.00,,2013-01-13 17:53:00,
2013-01-13 12:03:00,1.0,-4.0,30.29,NW,307,4.0,9.0,79,0.00,,,0.00,,2013-01-13 18:03:00,
2013-01-13 12:12:00,1.0,-4.0,30.29,NW,307,4.0,9.0,79,0.00,,,0.00,,2013-01-13 18:12:00,
2013-01-13 12:23:00,1.0,-4.0,30.29,WNW,295,4.0,7.0,79,0.00,,,0.00,,2013-01-13 18:23:00,
2013-01-13 12:33:00,1.0,-4.0,30.28,North,11,2.0,6.0,79,0.00,,,0.00,,2013-01-13 18:33:00,
2013-01-13 12:43:00,1.0,-4.0,30.28,North,11,2.0,6.0,79,0.00,,,0.00,,2013-01-13 18:43:00,
2013-01-13 12:53:00,2.0,-4.0,30.27,NNW,340,3.0,9.0,77,0.00,,,0.00,,2013-01-13 18:53:00,
2013-01-13 13:03:00,2.0,-3.0,30.27,WNW,300,3.0,7.0,79,0.00,,,0.00,,2013-01-13 19:03:00,
2013-01-13 13:12:00,2.0,-3.0,30.27,WNW,300,3.0,7.0,79,0.00,,,0.00,,2013-01-13 19:12:00,
2013-01-13 13:22:00,2.0,-3.0,30.27,NNE,27,3.0,7.0,78,0.00,,,0.00,,2013-01-13 19:22:00,
2013-01-13 13:33:00,2.0,-3.0,30.27,North,354,3.0,10.0,79,0.00,,,0.00,,2013-01-13 19:33:00,
2013-01-13 13:43:00,2.0,-3.0,30.27,North,354,3.0,10.0,79,0.00,,,0.00,,2013-01-13 19:43:00,
2013-01-13 13:52:00,2.0,-3.0,30.26,NNW,335,5.0,9.0,78,0.00,,,0.00,,2013-01-13 19:52:00,
2013-01-13 14:03:00,2.0,-3.0,30.26,NNW,345,4.0,8.0,79,0.00,,,0.00,,2013-01-13 20:03:00,
2013-01-13 14:12:00,2.0,-3.0,30.26,NNW,345,4.0,8.0,79,0.00,,,0.00,,2013-01-13 20:12:00,
2013-01-13 14:22:00,2.0,-3.0,30.27,NNW,336,5.0,12.0,80,0.00,,,0.00,,2013-01-13 20:22:00,
2013-01-13 14:33:00,2.0,-3.0,30.27,NNW,337,5.0,11.0,80,0.00,,,0.00,,2013-01-13 20:33:00,
2013-01-13 14:43:00,2.0,-3.0,30.27,NNW,337,5.0,11.0,80,0.00,,,0.00,,2013-01-13 20:43:00,
2013-01-13 14:53:00,2.0,-3.0,30.27,NW,326,5.0,12.0,80,0.00,,,0.00,,2013-01-13 20:53:00,
2013-01-13 15:03:00,2.0,-3.0,30.27,North,6,5.0,9.0,80,0.00,,,0.00,,2013-01-13 21:03:00,
2013-01-13 15:12:00,2.0,-3.0,30.27,North,6,5.0,9.0,80,0.00,,,0.00,,2013-01-13 21:12:00,
2013-01-13 15:23:00,3.0,-1.0,30.27,North,5,4.0,10.0,81,0.00,,,0.00,,2013-01-13 21:23:00,
2013-01-13 15:33:00,3.0,-1.0,30.28,North,4,4.0,10.0,81,0.00,,,0.00,,2013-01-13 21:33:00,
2013-01-13 15:43:00,3.0,-1.0,30.28,North,4,4.0,10.0,81,0.00,,,0.00,,2013-01-13 21:43:00,
2013-01-13 15:52:00,3.0,-1.0,30.29,NNW,333,2.0,8.0,82,0.00,,,0.00,,2013-01-13 21:52:00,
2013-01-13 16:02:00,3.0,-1.0,30.29,NW,325,3.0,10.0,83,0.00,,,0.00,,2013-01-13 22:02:00,
2013-01-13 16:12:00,3.0,-1.0,30.29,NW,325,3.0,10.0,83,0.00,,,0.00,,2013-01-13 22:12:00,
2013-01-13 16:22:00,4.0,0.0,30.29,NNW,328,4.0,10.0,83,0.00,,,0.00,,2013-01-13 22:22:00,
2013-01-13 16:33:00,4.0,0.0,30.29,NNW,346,3.0,10.0,83,0.00,,,0.00,,2013-01-13 22:33:00,
2013-01-13 16:43:00,4.0,0.0,30.29,NNW,346,3.0,10.0,83,0.00,,,0.00,,2013-01-13 22:43:00,
2013-01-13 16:52:00,4.0,0.0,30.30,NNW,329,5.0,9.0,84,0.00,,,0.00,,2013-01-13 22:52:00,
2013-01-13 17:02:00,4.0,0.0,30.31,NNW,329,7.0,10.0,83,0.00,,,0.00,,2013-01-13 23:02:00,
2013-01-13 17:12:00,4.0,0.0,30.31,NNW,329,7.0,10.0,83,0.00,,,0.00,,2013-01-13 23:12:00,
2013-01-13 17:22:00,3.0,-1.0,30.31,NNE,12,5.0,12.0,83,0.00,,,0.00,,2013-01-13 23:22:00,
2013-01-13 17:33:00,3.0,-1.0,30.31,NE,38,7.0,10.0,83,0.00,,,0.00,,2013-01-13 23:33:00,
2013-01-13 17:42:00,3.0,-1.0,30.31,NE,38,7.0,10.0,83,0.00,,,0.00,,2013-01-13 23:42:00,
2013-01-13 17:53:00,3.0,-1.0,30.31,North,6,4.0,8.0,83,0.00,,,0.00,,2013-01-13 23:53:00,
2013-01-13 18:02:00,3.0,-1.0,30.31,NNW,329,2.0,4.0,84,0.00,,,0.00,,2013-01-14 00:02:00,
2013-01-13 18:12:00,3.0,-1.0,30.31,NNW,329,2.0,4.0,84,0.00,,,0.00,,2013-01-14 00:12:00,
2013-01-13 18:22:00,3.0,-1.0,30.32,NNW,340,3.0,6.0,84,0.00,,,0.00,,2013-01-14 00:22:00,
2013-01-13 18:33:00,3.0,0.0,30.32,NW,325,1.0,5.0,85,0.00,,,0.00,,2013-01-14 00:33:00,
2013-01-13 18:43:00,3.0,0.0,30.32,NW,325,1.0,5.0,85,0.00,,,0.00,,2013-01-14 00:43:00,
2013-01-13 18:53:00,3.0,0.0,30.32,NW,314,1.0,5.0,85,0.00,,,0.00,,2013-01-14 00:53:00,
2013-01-13 19:03:00,3.0,-1.0,30.32,WNW,291,1.0,5.0,84,0.00,,,0.00,,2013-01-14 01:03:00,
2013-01-13 19:12:00,3.0,-1.0,30.32,WNW,291,1.0,5.0,84,0.00,,,0.00,,2013-01-14 01:12:00,
2013-01-13 19:22:00,3.0,-1.0,30.32,NW,324,3.0,6.0,84,0.00,,,0.00,,2013-01-14 01:22:00,
2013-01-13 19:32:00,3.0,-1.0,30.32,NW,307,1.0,5.0,84,0.00,,,0.00,,2013-01-14 01:32:00,
2013-01-13 19:42:00,3.0,-1.0,30.32,NW,307,1.0,5.0,84,0.00,,,0.00,,2013-01-14 01:42:00,
2013-01-13 19:52:00,4.0,0.0,30.32,NW,319,2.0,6.0,84,0.00,,,0.00,,2013-01-14 01:52:00,
2013-01-13 20:02:00,4.0,0.0,30.33,NW,307,2.0,5.0,84,0.00,,,0.00,,2013-01-14 02:02:00,
2013-01-13 20:12:00,4.0,0.0,30.33,NW,307,2.0,5.0,84,0.00,,,0.00,,2013-01-14 02:12:00,
2013-01-13 20:22:00,4.0,0.0,30.33,WNW,293,2.0,4.0,84,0.00,,,0.00,,2013-01-14 02:22:00,
2013-01-13 20:32:00,4.0,0.0,30.33,WNW,284,2.0,5.0,84,0.00,,,0.00,,2013-01-14 02:32:00,
2013-01-13 20:42:00,4.0,0.0,30.33,WNW,284,2.0,5.0,84,0.00,,,0.00,,2013-01-14 02:42:00,
2013-01-13 20:53:00,4.0,0.0,30.33,NW,304,2.0,5.0,84,0.00,,,0.00,,2013-01-14 02:53:00,
2013-01-13 21:02:00,4.0,0.0,30.33,WNW,288,2.0,5.0,83,0.00,,,0.00,,2013-01-14 03:02:00,
2013-01-13 21:12:00,4.0,0.0,30.33,WNW,288,2.0,5.0,83,0.00,,,0.00,,2013-01-14 03:12:00,
2013-01-13 21:22:00,4.0,0.0,30.33,West,281,2.0,5.0,84,0.00,,,0.00,,2013-01-14 03:22:00,
2013-01-13 21:32:00,4.0,0.0,30.34,West,269,2.0,6.0,84,0.00,,,0.00,,2013-01-14 03:32:00,
2013-01-13 21:42:00,4.0,0.0,30.34,West,269,2.0,6.0,84,0.00,,,0.00,,2013-01-14 03:42:00,
2013-01-13 21:53:00,4.0,0.0,30.34,West,276,3.0,5.0,84,0.00,,,0.00,,2013-01-14 03:53:00,
2013-01-13 22:02:00,4.0,0.0,30.34,WSW,256,2.0,5.0,84,0.00,,,0.00,,2013-01-14 04:02:00,
2013-01-13 22:12:00,4.0,0.0,30.34,WSW,256,2.0,5.0,84,0.00,,,0.00,,2013-01-14 04:12:00,
2013-01-13 22:22:00,4.0,1.0,30.34,West,280,3.0,6.0,85,0.00,,,0.00,,2013-01-14 04:22:00,
2013-01-13 22:32:00,4.0,1.0,30.34,West,262,4.0,7.0,85,0.00,,,0.00,,2013-01-14 04:32:00,
2013-01-13 22:42:00,4.0,1.0,30.34,West,262,4.0,7.0,85,0.00,,,0.00,,2013-01-14 04:42:00,
2013-01-13 22:53:00,4.0,1.0,30.34,WNW,284,5.0,7.0,86,0.00,,,0.00,,2013-01-14 04:53:00,
2013-01-13 23:03:00,4.0,1.0,30.35,West,273,4.0,6.0,86,0.00,,,0.00,,2013-01-14 05:03:00,
2013-01-13 23:12:00,4.0,1.0,30.35,West,273,4.0,6.0,86,0.00,,,0.00,,2013-01-14 05:12:00,
2013-01-13 23:22:00,4.0,1.0,30.35,West,274,3.0,7.0,86,0.00,,,0.00,,2013-01-14 05:22:00,
2013-01-13 23:32:00,5.0,2.0,30.35,WNW,293,3.0,8.0,85,0.00,,,0.00,,2013-01-14 05:32:00,
2013-01-13 23:42:00,5.0,2.0,30.35,WNW,293,3.0,8.0,85,0.00,,,0.00,,2013-01-14 05:42:00,
2013-01-13 23:53:00,5.0,0.0,30.35,NW,323,6.0,10.0,81,0.00,,,0.00,,2013-01-14 05:53:00,